TimeEDT,TemperatureF,Dew PointF,Humidity,Sea Level PressureIn,VisibilityMPH,Wind Direction,Wind SpeedMPH,Gust SpeedMPH,PrecipitationIn,Events,Conditions,WindDirDegrees,DateUTC
12:15 AM,77.0,69.8,78,30.05,3.0,SSE,4.6,-,N/A,,Haze,150,2012-09-02 04:15:00
12:35 AM,77.0,69.8,78,30.05,3.0,SSE,3.5,-,N/A,,Haze,160,2012-09-02 04:35:00
12:55 AM,77.0,69.8,78,30.05,1.5,Calm,Calm,-,N/A,,Haze,0,2012-09-02 04:55:00
1:15 AM,77.0,69.8,78,30.05,1.5,SSE,3.5,-,N/A,,Haze,150,2012-09-02 05:15:00
1:35 AM,73.4,69.8,88,30.05,1.8,Calm,Calm,-,N/A,,Mostly Cloudy,0,2012-09-02 05:35:00
1:55 AM,73.4,69.8,88,30.04,1.5,South,3.5,-,N/A,,Mist,190,2012-09-02 05:55:00
2:15 AM,77.0,69.8,78,30.03,1.8,SSW,4.6,-,N/A,,Haze,200,2012-09-02 06:15:00
2:35 AM,77.0,69.8,78,30.03,1.5,SSW,5.8,-,N/A,,Haze,200,2012-09-02 06:35:00
2:55 AM,75.2,69.8,83,30.03,5.0,SSW,5.8,-,N/A,,Haze,210,2012-09-02 06:55:00
3:15 AM,75.2,69.8,83,30.02,10.0,SW,4.6,-,N/A,,Scattered Clouds,220,2012-09-02 07:15:00
3:35 AM,75.2,69.8,83,30.01,10.0,SW,4.6,-,N/A,,Scattered Clouds,230,2012-09-02 07:35:00
3:55 AM,75.2,69.8,83,30.01,5.0,SSW,6.9,-,N/A,,Haze,210,2012-09-02 07:55:00
4:15 AM,75.2,69.8,83,30.00,4.0,SSW,8.1,-,N/A,,Haze,200,2012-09-02 08:15:00
4:35 AM,75.2,69.8,83,29.99,1.8,SSW,8.1,-,N/A,,Haze,200,2012-09-02 08:35:00
4:55 AM,75.2,68.0,78,29.99,2.5,SSW,10.4,-,N/A,,Haze,210,2012-09-02 08:55:00
5:15 AM,75.2,68.0,78,29.99,4.0,SSW,8.1,-,N/A,,Haze,210,2012-09-02 09:15:00
5:35 AM,75.2,68.0,78,29.98,2.5,SSW,8.1,-,N/A,,Haze,200,2012-09-02 09:35:00
5:55 AM,75.2,68.0,78,29.98,1.8,SSW,8.1,-,N/A,,Haze,200,2012-09-02 09:55:00
6:15 AM,73.4,68.0,83,29.99,4.0,SSW,6.9,-,N/A,,Haze,210,2012-09-02 10:15:00
6:35 AM,75.2,68.0,78,29.99,7.0,SSW,8.1,-,N/A,,Clear,200,2012-09-02 10:35:00
6:55 AM,75.2,68.0,78,30.00,10.0,SSW,8.1,-,N/A,,Clear,200,2012-09-02 10:55:00
7:15 AM,75.2,69.8,83,30.00,10.0,SSW,8.1,-,N/A,,Clear,200,2012-09-02 11:15:00
7:35 AM,75.2,69.8,83,30.00,10.0,South,6.9,-,N/A,,Clear,190,2012-09-02 11:35:00
7:55 AM,75.2,69.8,83,30.00,10.0,South,5.8,-,N/A,,Clear,190,2012-09-02 11:55:00
8:15 AM,75.2,69.8,83,30.01,7.0,South,6.9,-,N/A,,Clear,190,2012-09-02 12:15:00
8:35 AM,75.2,69.8,83,30.01,10.0,SSW,6.9,-,N/A,,Clear,210,2012-09-02 12:35:00
8:55 AM,77.0,69.8,78,30.01,10.0,SSW,5.8,-,N/A,,Clear,200,2012-09-02 12:55:00
9:15 AM,77.0,69.8,78,30.01,10.0,South,8.1,-,N/A,,Mostly Cloudy,190,2012-09-02 13:15:00
9:35 AM,77.0,69.8,78,30.01,10.0,South,9.2,-,N/A,,Scattered Clouds,190,2012-09-02 13:35:00
9:55 AM,78.8,69.8,74,30.00,10.0,SSW,9.2,-,N/A,,Clear,210,2012-09-02 13:55:00
10:15 AM,78.8,69.8,74,30.01,10.0,SSW,8.1,-,N/A,,Scattered Clouds,210,2012-09-02 14:15:00
10:35 AM,78.8,69.8,74,30.02,10.0,SSW,10.4,-,N/A,,Scattered Clouds,210,2012-09-02 14:35:00
10:55 AM,78.8,69.8,74,30.02,10.0,SSW,5.8,-,N/A,,Clear,210,2012-09-02 14:55:00
11:15 AM,78.8,69.8,74,30.02,10.0,SW,5.8,-,N/A,,Scattered Clouds,220,2012-09-02 15:15:00
11:35 AM,78.8,69.8,74,30.02,10.0,South,8.1,-,N/A,,Mostly Cloudy,190,2012-09-02 15:35:00
12:15 PM,80.6,69.8,70,30.00,7.0,South,8.1,-,N/A,,Mostly Cloudy,180,2012-09-02 16:15:00
12:35 PM,80.6,69.8,70,30.00,7.0,South,9.2,-,N/A,,Mostly Cloudy,170,2012-09-02 16:35:00
12:55 PM,80.6,71.6,74,29.99,5.0,South,8.1,-,N/A,,Haze,170,2012-09-02 16:55:00
1:15 PM,80.6,71.6,74,29.99,7.0,South,6.9,-,N/A,,Mostly Cloudy,180,2012-09-02 17:15:00
1:35 PM,82.4,69.8,66,29.98,5.0,South,8.1,-,N/A,,Haze,190,2012-09-02 17:35:00
1:55 PM,82.4,69.8,66,29.97,10.0,SSW,10.4,-,N/A,,Mostly Cloudy,210,2012-09-02 17:55:00
2:15 PM,82.4,69.8,66,29.96,10.0,South,10.4,-,N/A,,Scattered Clouds,190,2012-09-02 18:15:00
2:35 PM,82.4,69.8,66,29.95,5.0,SSW,4.6,-,N/A,,Haze,200,2012-09-02 18:35:00
2:55 PM,84.2,69.8,62,29.93,10.0,WSW,8.1,-,N/A,,Mostly Cloudy,250,2012-09-02 18:55:00
3:15 PM,82.4,69.8,66,29.92,10.0,SW,5.8,-,N/A,,Overcast,230,2012-09-02 19:15:00
3:35 PM,84.2,69.8,62,29.91,7.0,South,8.1,-,N/A,,Mostly Cloudy,190,2012-09-02 19:35:00
3:55 PM,86.0,69.8,58,29.90,7.0,South,8.1,-,N/A,,Scattered Clouds,170,2012-09-02 19:55:00
4:15 PM,84.2,68.0,58,29.89,3.0,South,8.1,-,N/A,,Haze,170,2012-09-02 20:15:00
4:35 PM,84.2,69.8,62,29.89,4.0,South,8.1,-,N/A,,Haze,180,2012-09-02 20:35:00
4:55 PM,73.4,69.8,88,29.91,1.5,SSE,11.5,24.2,N/A,Rain,Rain,150,2012-09-02 20:55:00
5:15 PM,73.4,71.6,94,29.91,1.5,South,4.6,-,N/A,,Overcast,170,2012-09-02 21:15:00
5:35 PM,73.4,73.4,100,29.91,1.2,SE,4.6,-,N/A,,Mostly Cloudy,130,2012-09-02 21:35:00
5:55 PM,75.2,73.4,94,29.90,7.0,SE,9.2,-,N/A,,Clear,140,2012-09-02 21:55:00
6:15 PM,73.4,71.6,94,29.91,3.0,SSE,8.1,-,N/A,,Clear,150,2012-09-02 22:15:00
6:35 PM,73.4,71.6,94,29.90,3.0,SE,9.2,-,N/A,,Scattered Clouds,140,2012-09-02 22:35:00
6:55 PM,73.4,69.8,88,29.90,2.5,SSE,6.9,-,N/A,,Mostly Cloudy,160,2012-09-02 22:55:00
7:15 PM,73.4,71.6,94,29.90,2.0,SSE,5.8,-,N/A,,Drizzle,150,2012-09-02 23:15:00
7:35 PM,73.4,69.8,88,29.90,4.0,SE,6.9,-,N/A,Rain,Light Rain,140,2012-09-02 23:35:00
7:55 PM,71.6,69.8,94,29.89,4.0,SE,6.9,-,N/A,Rain,Rain,140,2012-09-02 23:55:00
8:15 PM,71.6,69.8,94,29.89,-9999.0,SE,6.9,-,N/A,,Unknown,140,2012-09-03 00:15:00
8:35 PM,71.6,69.8,94,29.90,-9999.0,SSE,6.9,-,N/A,,Unknown,150,2012-09-03 00:35:00
8:55 PM,71.6,69.8,94,29.90,-9999.0,SE,8.1,-,N/A,,Unknown,140,2012-09-03 00:55:00
9:15 PM,71.6,69.8,94,29.90,-9999.0,SSE,6.9,-,N/A,,Unknown,160,2012-09-03 01:15:00
9:35 PM,71.6,69.8,94,29.91,-9999.0,South,5.8,-,N/A,,Unknown,190,2012-09-03 01:35:00
9:55 PM,71.6,69.8,94,29.91,-9999.0,SSE,6.9,-,N/A,,Unknown,160,2012-09-03 01:55:00
10:15 PM,71.6,69.8,94,29.91,-9999.0,SSE,5.8,-,N/A,,Unknown,150,2012-09-03 02:15:00